FW7205 Weather Reports


Display with metric or nautical units.
time (UTC)temp
F
wind
direction
speed
MPH
gust
MPH
rain 1hr
in
rain 24hr
in
rain mn
in
humidity
%
barometer
mb
20260508151603 66 110 1.0 3.0 0.00 0.00 0.00 88 1012.7
20260508150059 65 360 0.0 3.0 0.00 0.00 0.00 90 1012.9
20260508144607 64 123 0.0 3.0 0.00 0.00 0.00 90 1013.0
20260508143059 64 65 1.0 3.0 0.00 0.00 0.00 90 1012.7
20260508141605 63 0 0.0 3.0 0.00 0.00 0.00 90 1012.6
20260508140100 63 360 1.0 3.0 0.00 0.00 0.00 90 1012.9
20260508134613 63 71 1.0 3.0 0.00 0.00 0.00 89 1012.8
20260508133059 63 0 0.0 2.0 0.00 0.00 0.00 88 1012.9
20260508131603 63 66 0.0 3.0 0.00 0.00 0.00 88 1012.7
20260508130100 62 0 0.0 2.0 0.00 0.00 0.00 87 1012.8
20260508124557 63 0 0.0 2.0 0.00 0.00 0.00 87 1013.3
20260508123107 63 68 0.0 2.0 0.00 0.00 0.00 86 1013.3
20260508121558 63 0 0.0 2.0 0.00 0.00 0.00 85 1013.2
20260508120055 63 0 0.0 2.0 0.00 0.00 0.00 84 1013.4
20260508114558 63 0 0.0 1.0 0.00 0.00 0.00 83 1013.3
20260508113106 63 0 0.0 1.0 0.00 0.00 0.00 83 1013.3
20260508111557 63 0 0.0 0.0 0.00 0.00 0.00 83 1012.7
20260508110055 63 0 0.0 2.0 0.00 0.00 0.00 83 1012.4
20260508104601 63 0 0.0 2.0 0.00 0.00 0.00 83 1012.5
20260508103058 63 0 0.0 2.0 0.00 0.00 0.00 82 1013.0
20260508101600 63 66 0.0 3.0 0.00 0.00 0.00 83 1012.9
20260508100100 63 64 1.0 2.0 0.00 0.00 0.00 83 1012.8
20260508094615 63 64 1.0 2.0 0.00 0.00 0.00 83 1012.7
20260508093053 62 0 0.0 2.0 0.00 0.00 0.00 83 1013.0
20260508091601 62 0 0.0 1.0 0.00 0.00 0.00 83 1012.7
20260508090056 62 0 0.0 3.0 0.00 0.00 0.00 83 1012.5
20260508084556 62 63 0.0 2.0 0.00 0.00 0.00 83 1012.6
20260508083054 62 0 1.0 3.0 0.00 0.00 0.00 83 1012.5
20260508081616 62 0 0.0 3.0 0.00 0.00 0.00 84 1012.8
20260508080100 62 0 0.0 1.0 0.00 0.00 0.00 84 1012.7
20260508074558 62 0 0.0 0.0 0.00 0.00 0.00 84 1013.4
20260508073103 62 0 0.0 0.0 0.00 0.00 0.00 84 1013.4
20260508071558 62 0 0.0 2.0 0.00 0.00 0.00 84 1013.2
20260508070104 62 0 0.0 1.0 0.00 0.00 0.00 83 1013.8
20260508064607 62 0 0.0 2.0 0.00 0.00 0.00 83 1013.5
20260508063105 62 24 0.0 2.0 0.00 0.00 0.00 83 1013.6
20260508061557 62 0 0.0 3.0 0.00 0.00 0.00 83 1013.3
20260508060057 62 0 0.0 1.0 0.00 0.00 0.00 82 1013.5
20260508054553 63 0 0.0 2.0 0.00 0.00 0.00 82 1013.7
20260508053057 63 0 1.0 2.0 0.00 0.00 0.00 82 1013.2
20260508051556 63 0 1.0 3.0 0.00 0.00 0.00 81 1013.4
20260508050057 63 0 0.0 1.0 0.00 0.00 0.00 81 1014.2
20260508044553 63 0 0.0 1.0 0.00 0.00 0.00 81 1013.6
20260508043054 63 47 1.0 3.0 0.00 0.00 0.00 80 1013.3
20260508041555 63 0 0.0 1.0 0.00 0.00 0.00 80 1014.2
20260508040059 63 0 0.0 0.0 0.00 0.00 0.00 80 1013.8
20260508034559 63 0 0.0 2.0 0.00 0.00 0.00 80 1013.8
20260508033054 64 0 0.0 2.0 0.00 0.00 0.00 80 1013.3
20260508031557 64 0 0.0 3.0 0.00 0.00 0.00 79 1013.2
20260508030055 64 360 0.0 3.0 0.00 0.00 0.00 79 1012.8
20260508024555 64 360 0.0 2.0 0.00 0.00 0.00 78 1013.5
20260508023054 64 360 0.0 2.0 0.00 0.00 0.00 77 1013.9
20260508021556 64 360 0.0 3.0 0.00 0.00 0.00 77 1013.1
20260508020103 64 360 0.0 3.0 0.00 0.00 0.00 76 1013.1
20260508014557 65 0 0.0 1.0 0.00 0.00 0.00 76 1013.6
20260508013056 65 0 0.0 1.0 0.00 0.00 0.00 75 1013.7
20260508011555 65 0 0.0 1.0 0.00 0.00 0.00 74 1014.0
20260508010057 65 0 0.0 2.0 0.00 0.00 0.00 73 1013.9
20260508004600 66 0 0.0 2.0 0.00 0.00 0.00 73 1013.9
20260508003052 66 52 0.0 2.0 0.00 0.00 0.00 72 1013.5
20260508001555 66 0 0.0 1.0 0.00 0.00 0.00 72 1013.9
20260508000053 67 0 0.0 1.0 0.00 0.00 0.00 71 1014.2
20260507234555 67 0 0.0 1.0 0.00 0.00 0.00 71 1014.1
20260507233056 67 41 0.0 3.0 0.00 0.00 0.00 70 1014.2
20260507231558 67 0 0.0 3.0 0.00 0.00 0.00 69 1013.9
20260507230101 67 0 0.0 2.0 0.00 0.00 0.00 69 1014.1
20260507224558 68 337 0.0 2.0 0.00 0.00 0.00 69 1014.7
20260507223052 68 344 0.0 2.0 0.00 0.00 0.00 69 1014.4
20260507221556 68 329 0.0 3.0 0.00 0.00 0.00 69 1014.2
20260507220056 68 352 0.0 3.0 0.00 0.00 0.00 69 1014.4
20260507214603 68 0 0.0 2.0 0.00 0.00 0.00 69 1014.1
20260507213057 68 0 0.0 2.0 0.00 0.00 0.00 69 1014.3
20260507211605 68 0 0.0 3.0 0.00 0.00 0.00 68 1013.9
20260507204557 68 49 0.0 3.0 0.00 0.00 0.00 68 1014.2
20260507203106 69 0 0.0 3.0 0.00 0.00 0.00 68 1014.7
20260507201600 69 0 0.0 3.0 0.00 0.00 0.00 68 1014.7
20260507200109 69 19 0.0 5.0 0.00 0.00 0.00 66 1015.2
20260507194557 69 348 0.0 7.0 0.00 0.00 0.00 66 1015.4
20260507193058 70 352 0.0 4.0 0.00 0.00 0.00 66 1015.3
20260507191600 70 0 1.0 5.0 0.00 0.00 0.00 66 1015.1
20260507190104 69 27 0.0 5.0 0.00 0.00 0.00 68 1015.0
20260507184600 69 48 1.0 3.0 0.00 0.00 0.00 68 1015.8
20260507183054 69 75 0.0 3.0 0.00 0.00 0.00 68 1015.5
20260507181552 68 352 0.0 2.0 0.00 0.00 0.00 68 1016.5
20260507180055 69 0 0.0 3.0 0.00 0.00 0.00 68 1017.0
20260507174558 67 15 0.0 4.0 0.00 0.00 0.00 70 1015.9
20260507173054 66 67 1.0 4.0 0.00 0.00 0.00 71 1016.1
20260507171600 65 0 1.0 3.0 0.00 0.00 0.00 72 1016.4
20260507164601 63 355 0.0 2.0 0.00 0.00 0.00 75 1016.9
20260507163055 63 0 0.0 2.0 0.00 0.00 0.00 74 1017.1
20260507161555 64 0 0.0 3.0 0.00 0.00 0.00 76 1016.5
20260507160058 63 0 1.0 4.0 0.00 0.00 0.00 76 1016.7
20260507154559 63 0 1.0 3.0 0.00 0.00 0.00 76 1016.6
20260507153051 62 76 2.0 5.0 0.00 0.00 0.00 79 1015.8